sat.trackr.live / text

‹ back to catalog

DMC3-FM3

NORAD 40717 · 2015-032C

PAYLOAD ACTIVE UNKNOWN

§ Identity

Operator
Country
UK
Launch date
2015-07-10
Launch site
SRILR
Launch vehicle
Mass (kg)
RCS (m²)
1.52

Purposes: earth_obs

External: N2YO · Heavens-Above · Gunter

§ Orbital elements

Epoch: 2026-09-10T04:11:25.620576Z

Period
96.92 min
Inclination
97.6435°
Eccentricity
0.0006181
Mean motion
14.85809631 rev/d
Perigee alt
606.7 km
Apogee alt
615.4 km
Semi-major
6,989.2 km
B*
6.1235e-5
RAAN
118.4044°
Arg perigee
126.7742°
Mean anomaly
233.4042°
Rev number
60,253

§ Raw data

DMC3-FM31 40717U 15032C   26253.17460209  .00000481  00000+0  61235-4 0  99902 40717  97.6435 118.4044 0006181 126.7742 233.4042 14.85809631602531

JSON: /api/v1/satellites/40717 · /tle

For live sub-satellite position, see the globe view (requires WebGL).

§ Visibility from observer

Set your observer location to see the next 7 days of passes ≥ 10°. The values pass through the URL so the page stays shareable.

No JS? Fill the form by hand. The geolocation button needs JavaScript.

§ Radio — SatNOGS DB

ModeDescriptionDownlinkUplink
FM Mode X (375MHz) 8.213 GHz
BPSK Telemetry 2.237 GHz

2 transmitters · refreshed weekly from db.satnogs.org